AMAZONAS 3

Last updated on Sat Oct 05 2024 00:02:39 GMT+0000 (Coordinated Universal Time)

1 39078U 13006A 24278.31315387 -.00000274 00000+0 00000+0 0 9993 2 39078 0.0296 227.6295 0005201 337.2922 220.2705 1.00266676 38682
UTC large
Height (km)
Speed (km/s)
/
Latitude / Longitude
Inclination (degrees)
Orbital Period (minutes)
Azimuth
Elevation
Range (km)
Doppler Factor

Next 0 passes for location: London (51.5072 / 0.1276)

Sorry there are no passes over London.